,,Stat6,,Stat2,,Stat8,,Stat9,,Stat10,,Wind1,,Wind1,
time,status,PA1M_AVG,status,PR1M_SUM,status,RH1M_AVG,status,SR1M_AVG,status,TA1M_AVG,status,W1dAve1m,status,W1sAve1m,
2007-03-20, 00:00:00,VALID,918.014,VALID,0,VALID,100,VALID,16.1827,VALID,17.9947,VALID,153,VALID,1.53361,
2007-03-20, 00:01:00,VALID,918.023,VALID,0,VALID,100,VALID,16.8789,VALID,18.0012,VALID,154,VALID,2.08683,
2007-03-20, 00:02:00,VALID,918.037,VALID,0,VALID,100,VALID,17.5921,VALID,18.0047,VALID,153,VALID,2.2619,
2007-03-20, 00:03:00,VALID,918.079,VALID,0,VALID,100,VALID,18.2544,VALID,18.0246,VALID,157,VALID,1.9929,
2007-03-20, 00:04:00,VALID,918.083,VALID,0,VALID,100,VALID,19.0525,VALID,18.0304,VALID,156,VALID,1.92913,
2007-03-20, 00:05:00,VALID,918.124,VALID,0,VALID,100,VALID,19.8166,VALID,18.0533,VALID,155,VALID,1.49126,
2007-03-20, 00:06:00,VALID,918.147,VALID,0,VALID,100,VALID,20.6657,VALID,18.0499,VALID,149,VALID,1.62066,
2007-03-20, 00:07:00,VALID,918.195,VALID,0,VALID,100,VALID,21.5147,VALID,18.0663,VALID,151,VALID,1.72866,
2007-03-20, 00:08:00,VALID,918.212,VALID,0,VALID,100,VALID,22.3807,VALID,18.0663,VALID,161,VALID,1.71955,
2007-03-20, 00:09:00,VALID,918.23,VALID,0,VALID,100,VALID,23.2298,VALID,18.0728,VALID,163,VALID,1.47752,
2007-03-20, 00:10:00,VALID,918.242,VALID,0,VALID,100,VALID,24.1128,VALID,18.102,VALID,148,VALID,0.968932,
2007-03-20, 00:11:00,VALID,918.263,VALID,0,VALID,100,VALID,25.0637,VALID,18.1022,VALID,155,VALID,1.93235,
2007-03-20, 00:12:00,VALID,918.271,VALID,0,VALID,100,VALID,25.9807,VALID,18.1187,VALID,159,VALID,1.63953,
2007-03-20, 00:13:00,VALID,918.287,VALID,0,VALID,100,VALID,26.9656,VALID,18.1312,VALID,166,VALID,1.03848,
2007-03-20, 00:14:00,VALID,918.3,VALID,0,VALID,100,VALID,27.9335,VALID,18.1377,VALID,161,VALID,1.29074,
2007-03-20, 00:15:00,VALID,918.327,VALID,0,VALID,100,VALID,28.8674,VALID,18.1478,VALID,161,VALID,1.24097,
2007-03-20, 00:16:00,VALID,918.314,VALID,0,VALID,100,VALID,29.7674,VALID,18.1423,VALID,158,VALID,1.88301,
2007-03-20, 00:17:00,VALID,918.326,VALID,0,VALID,100,VALID,30.8032,VALID,18.1423,VALID,149,VALID,1.69295,
2007-03-20, 00:18:00,VALID,918.321,VALID,0,VALID,100,VALID,31.7881,VALID,18.1386,VALID,151,VALID,1.94643,
2007-03-20, 00:19:00,VALID,918.321,VALID,0,VALID,100,VALID,32.9089,VALID,18.1455,VALID,147,VALID,2.1955,
2007-03-20, 00:20:00,VALID,918.334,VALID,0,VALID,100,VALID,34.0635,VALID,18.1617,VALID,147,VALID,2.08524,
2007-03-20, 00:21:00,VALID,918.361,VALID,0,VALID,100,VALID,35.2013,VALID,18.168,VALID,146,VALID,1.92436,
2007-03-20, 00:22:00,VALID,918.356,VALID,0,VALID,100,VALID,36.2711,VALID,18.1779,VALID,153,VALID,2.0605,
2007-03-20, 00:23:00,VALID,918.376,VALID,0,VALID,100,VALID,37.4258,VALID,18.1942,VALID,145,VALID,1.60884,
2007-03-20, 00:24:00,VALID,918.385,VALID,0,VALID,100,VALID,38.4446,VALID,18.2006,VALID,146,VALID,1.80723,
2007-03-20, 00:25:00,VALID,918.401,VALID,0,VALID,100,VALID,39.5144,VALID,18.2069,VALID,151,VALID,2.09566,
2007-03-20, 00:26:00,VALID,918.41,VALID,0,VALID,100,VALID,40.6691,VALID,18.2169,VALID,150,VALID,1.76246,
2007-03-20, 00:27:00,VALID,918.397,VALID,0,VALID,100,VALID,41.9766,VALID,18.2363,VALID,142,VALID,1.8092,
2007-03-20, 00:28:00,VALID,918.393,VALID,0,VALID,100,VALID,43.2841,VALID,18.2359,VALID,137,VALID,1.80583,
2007-03-20, 00:29:00,VALID,918.373,VALID,0,VALID,100,VALID,44.6766,VALID,18.2356,VALID,143,VALID,2.31179,
2007-03-20, 00:30:00,VALID,918.351,VALID,0,VALID,100,VALID,46.2558,VALID,18.2454,VALID,139,VALID,2.34993,
2007-03-20, 00:31:00,VALID,918.328,VALID,0,VALID,100,VALID,47.869,VALID,18.2576,VALID,146,VALID,2.08526,
2007-03-20, 00:32:00,VALID,918.326,VALID,0,VALID,100,VALID,49.5501,VALID,18.2678,VALID,141,VALID,2.43932,
2007-03-20, 00:33:00,VALID,918.317,VALID,0,VALID,100,VALID,51.2991,VALID,18.2704,VALID,149,VALID,1.94703,
2007-03-20, 00:34:00,VALID,918.301,VALID,0,VALID,100,VALID,53.0821,VALID,18.2734,VALID,144,VALID,2.05735,
2007-03-20, 00:35:00,VALID,918.287,VALID,0,VALID,100,VALID,54.916,VALID,18.2933,VALID,136,VALID,2.1,
2007-03-20, 00:36:00,VALID,918.275,VALID,0,VALID,100,VALID,56.733,VALID,18.3063,VALID,135,VALID,2.34395,
2007-03-20, 00:37:00,VALID,918.284,VALID,0,VALID,100,VALID,58.6348,VALID,18.303,VALID,128,VALID,1.97874,
2007-03-20, 00:38:00,VALID,918.264,VALID,0,VALID,100,VALID,60.5027,VALID,18.3195,VALID,132,VALID,2.30115,
2007-03-20, 00:39:00,VALID,918.291,VALID,0,VALID,100,VALID,62.3706,VALID,18.3225,VALID,118,VALID,2.13576,
2007-03-20, 00:40:00,VALID,918.299,VALID,0,VALID,100,VALID,64.0347,VALID,18.3193,VALID,109,VALID,2.0641,
2007-03-20, 00:41:00,VALID,918.322,VALID,0,VALID,100,VALID,65.7158,VALID,18.3355,VALID,120,VALID,1.87908,
2007-03-20, 00:42:00,VALID,918.326,VALID,0,VALID,100,VALID,67.312,VALID,18.3519,VALID,123,VALID,1.64879,
2007-03-20, 00:43:00,VALID,918.327,VALID,0,VALID,100,VALID,69.0441,VALID,18.3575,VALID,137,VALID,1.9478,
2007-03-20, 00:44:00,VALID,918.323,VALID,0,VALID,100,VALID,70.6742,VALID,18.3746,VALID,140,VALID,1.91897,
2007-03-20, 00:45:00,VALID,918.328,VALID,0,VALID,100,VALID,72.3553,VALID,18.3915,VALID,127,VALID,1.5536,
2007-03-20, 00:46:00,VALID,918.308,VALID,0,VALID,100,VALID,74.0025,VALID,18.4017,VALID,141,VALID,1.6686,
2007-03-20, 00:47:00,VALID,918.308,VALID,0,VALID,100,VALID,75.7854,VALID,18.408,VALID,138,VALID,1.89385,
2007-03-20, 00:48:00,VALID,918.301,VALID,0,VALID,100,VALID,77.6703,VALID,18.4179,VALID,135,VALID,1.86275,
2007-03-20, 00:49:00,VALID,918.292,VALID,0,VALID,100,VALID,79.4873,VALID,18.4281,VALID,141,VALID,1.7745,
2007-03-20, 00:50:00,VALID,918.301,VALID,0,VALID,100,VALID,81.2703,VALID,18.4508,VALID,138,VALID,1.79706,
2007-03-20, 00:51:00,VALID,918.296,VALID,0,VALID,100,VALID,82.9514,VALID,18.4768,VALID,138,VALID,1.45573,
2007-03-20, 00:52:00,VALID,918.307,VALID,0,VALID,100,VALID,84.7513,VALID,18.5057,VALID,139,VALID,1.66502,
2007-03-20, 00:53:00,VALID,918.279,VALID,0,VALID,100,VALID,86.4834,VALID,18.5152,VALID,149,VALID,2.01054,
2007-03-20, 00:54:00,VALID,918.284,VALID,0,VALID,100,VALID,88.1984,VALID,18.5252,VALID,150,VALID,2.01267,
2007-03-20, 00:55:00,VALID,918.288,VALID,0,VALID,100,VALID,89.8795,VALID,18.519,VALID,157,VALID,2.00255,
2007-03-20, 00:56:00,VALID,918.291,VALID,0,VALID,100,VALID,91.7644,VALID,18.5122,VALID,153,VALID,1.80541,
2007-03-20, 00:57:00,VALID,918.292,VALID,0,VALID,100,VALID,93.4965,VALID,18.5254,VALID,160,VALID,1.52604,
2007-03-20, 00:58:00,VALID,918.291,VALID,0,VALID,100,VALID,95.1945,VALID,18.5516,VALID,150,VALID,1.55983,
2007-03-20, 00:59:00,VALID,918.304,VALID,0,VALID,100,VALID,96.57,VALID,18.5514,VALID,156,VALID,1.8832,
2007-03-20, 01:00:00,VALID,918.312,VALID,0,VALID,100,VALID,97.9964,VALID,18.541,VALID,153,VALID,1.70332,
2007-03-20, 01:01:00,VALID,918.319,VALID,0,VALID,100,VALID,99.3548,VALID,18.5627,VALID,143,VALID,1.82383,
2007-03-20, 01:02:00,VALID,918.309,VALID,0,VALID,100,VALID,100.56,VALID,18.5697,VALID,157,VALID,2.12656,
2007-03-20, 01:03:00,VALID,918.31,VALID,0,VALID,100,VALID,101.936,VALID,18.5827,VALID,154,VALID,1.82049,
2007-03-20, 01:04:00,VALID,918.315,VALID,0,VALID,100,VALID,103.345,VALID,18.5757,VALID,153,VALID,2.16749,
2007-03-20, 01:05:00,VALID,918.3,VALID,0,VALID,100,VALID,104.84,VALID,18.5827,VALID,159,VALID,2.12598,
2007-03-20, 01:06:00,VALID,918.301,VALID,0,VALID,100,VALID,106.572,VALID,18.5986,VALID,156,VALID,1.91838,
2007-03-20, 01:07:00,VALID,918.319,VALID,0,VALID,100,VALID,108.287,VALID,18.6146,VALID,152,VALID,1.84834,
2007-03-20, 01:08:00,VALID,918.32,VALID,0,VALID,100,VALID,109.866,VALID,18.6343,VALID,157,VALID,1.91611,
2007-03-20, 01:09:00,VALID,918.339,VALID,0,VALID,100,VALID,111.445,VALID,18.6607,VALID,149,VALID,1.75038,
2007-03-20, 01:10:00,VALID,918.351,VALID,0,VALID,100,VALID,112.99,VALID,18.7061,VALID,150,VALID,0.812682,
2007-03-20, 01:11:00,VALID,918.359,VALID,0,VALID,100,VALID,114.655,VALID,18.7191,VALID,155,VALID,1.5685,
2007-03-20, 01:12:00,VALID,918.351,VALID,0,VALID,100,VALID,116.522,VALID,18.7358,VALID,142,VALID,1.36308,
2007-03-20, 01:13:00,VALID,918.33,VALID,0,VALID,100,VALID,118.526,VALID,18.761,VALID,139,VALID,1.58222,
2007-03-20, 01:14:00,VALID,918.351,VALID,0,VALID,100,VALID,120.564,VALID,18.761,VALID,155,VALID,1.80142,
2007-03-20, 01:15:00,VALID,918.349,VALID,0,VALID,100,VALID,122.5,VALID,18.7967,VALID,158,VALID,2.14135,
2007-03-20, 01:16:00,VALID,918.371,VALID,0,VALID,100,VALID,124.385,VALID,18.7932,VALID,166,VALID,2.05246,
2007-03-20, 01:17:00,VALID,918.36,VALID,0,VALID,100,VALID,126.337,VALID,18.8294,VALID,155,VALID,1.23686,
2007-03-20, 01:18:00,VALID,918.372,VALID,0,VALID,100,VALID,128.307,VALID,18.8454,VALID,150,VALID,1.66661,
2007-03-20, 01:19:00,VALID,918.385,VALID,0,VALID,100,VALID,130.158,VALID,18.8586,VALID,159,VALID,1.81836,
2007-03-20, 01:20:00,VALID,918.379,VALID,0,VALID,100,VALID,131.975,VALID,18.8811,VALID,150,VALID,1.56414,
2007-03-20, 01:21:00,VALID,918.389,VALID,0,VALID,100,VALID,133.707,VALID,18.923,VALID,160,VALID,1.25657,
2007-03-20, 01:22:00,VALID,918.38,VALID,0,VALID,100,VALID,135.524,VALID,18.9197,VALID,152,VALID,1.93828,
2007-03-20, 01:23:00,VALID,918.362,VALID,0,VALID,100,VALID,137.375,VALID,18.9265,VALID,133,VALID,1.15749,
2007-03-20, 01:24:00,VALID,918.347,VALID,0,VALID,100,VALID,139.175,VALID,18.9584,VALID,145,VALID,1.3234,
2007-03-20, 01:25:00,VALID,918.323,VALID,0,VALID,100,VALID,141.009,VALID,18.9714,VALID,140,VALID,1.41215,
2007-03-20, 01:26:00,VALID,918.311,VALID,0,VALID,100,VALID,142.826,VALID,18.9714,VALID,147,VALID,1.55735,
2007-03-20, 01:27:00,VALID,918.308,VALID,0,VALID,100,VALID,144.643,VALID,18.9846,VALID,154,VALID,1.21627,
2007-03-20, 01:28:00,VALID,918.33,VALID,0,VALID,100,VALID,146.494,VALID,19.0405,VALID,143,VALID,1.16354,
2007-03-20, 01:29:00,VALID,918.335,VALID,0,VALID,100,VALID,148.294,VALID,19.0722,VALID,142,VALID,0.89098,
2007-03-20, 01:30:00,VALID,918.372,VALID,0,VALID,100,VALID,150.178,VALID,19.1281,VALID,138,VALID,1.34766,
2007-03-20, 01:31:00,VALID,918.394,VALID,0,VALID,100,VALID,151.978,VALID,19.1635,VALID,142,VALID,1.14825,
2007-03-20, 01:32:00,VALID,918.411,VALID,0,VALID,100,VALID,153.744,VALID,19.1732,VALID,157,VALID,1.38281,
2007-03-20, 01:33:00,VALID,918.428,VALID,0,VALID,100,VALID,155.595,VALID,19.1962,VALID,157,VALID,1.1052,
2007-03-20, 01:34:00,VALID,918.442,VALID,0,VALID,99.9865,VALID,157.65,VALID,19.1932,VALID,132,VALID,1.22301,
2007-03-20, 01:35:00,VALID,918.448,VALID,0,VALID,100,VALID,159.62,VALID,19.2159,VALID,131,VALID,0.778392,
2007-03-20, 01:36:00,VALID,918.456,VALID,0,VALID,100,VALID,161.539,VALID,19.2808,VALID,121,VALID,0.991016,
2007-03-20, 01:37:00,VALID,918.449,VALID,0,VALID,100,VALID,163.457,VALID,19.2706,VALID,120,VALID,1.6791,
2007-03-20, 01:38:00,VALID,918.438,VALID,0,VALID,99.9964,VALID,165.461,VALID,19.2513,VALID,132,VALID,1.73363,
2007-03-20, 01:39:00,VALID,918.43,VALID,0,VALID,99.6643,VALID,167.533,VALID,19.2187,VALID,137,VALID,1.84673,
2007-03-20, 01:40:00,VALID,918.415,VALID,0,VALID,99.8421,VALID,169.605,VALID,19.2346,VALID,136,VALID,1.68132,
2007-03-20, 01:41:00,VALID,918.406,VALID,0,VALID,99.9041,VALID,171.676,VALID,19.29,VALID,152,VALID,1.79859,
2007-03-20, 01:42:00,VALID,918.391,VALID,0,VALID,99.5883,VALID,173.901,VALID,19.2611,VALID,149,VALID,2.14172,
2007-03-20, 01:43:00,VALID,918.384,VALID,0,VALID,99.6417,VALID,176.227,VALID,19.2965,VALID,143,VALID,1.92624,
2007-03-20, 01:44:00,VALID,918.394,VALID,0,VALID,99.6582,VALID,178.367,VALID,19.335,VALID,151,VALID,1.61719,
2007-03-20, 01:45:00,VALID,918.391,VALID,0,VALID,99.4382,VALID,180.829,VALID,19.3686,VALID,135,VALID,1.9974,
2007-03-20, 01:46:00,VALID,918.394,VALID,0,VALID,99.3721,VALID,183.053,VALID,19.3941,VALID,134,VALID,1.9028,
2007-03-20, 01:47:00,VALID,918.383,VALID,0,VALID,99.3759,VALID,185.397,VALID,19.4333,VALID,135,VALID,1.63608,
2007-03-20, 01:48:00,VALID,918.373,VALID,0,VALID,99.5336,VALID,187.638,VALID,19.5014,VALID,130,VALID,1.41584,
2007-03-20, 01:49:00,VALID,918.366,VALID,0,VALID,99.2347,VALID,189.778,VALID,19.5276,VALID,151,VALID,1.51973,
2007-03-20, 01:50:00,VALID,918.359,VALID,0,VALID,99.0364,VALID,192.104,VALID,19.5144,VALID,144,VALID,1.66632,
2007-03-20, 01:51:00,VALID,918.334,VALID,0,VALID,98.9944,VALID,194.312,VALID,19.5436,VALID,150,VALID,1.69844,
2007-03-20, 01:52:00,VALID,918.331,VALID,0,VALID,98.9041,VALID,196.587,VALID,19.563,VALID,149,VALID,1.56163,
2007-03-20, 01:53:00,VALID,918.326,VALID,0,VALID,98.5875,VALID,198.829,VALID,19.5793,VALID,153,VALID,1.99637,
2007-03-20, 01:54:00,VALID,918.339,VALID,0,VALID,98.4044,VALID,201.172,VALID,19.592,VALID,154,VALID,1.87138,
2007-03-20, 01:55:00,VALID,918.348,VALID,0,VALID,97.9212,VALID,203.362,VALID,19.5887,VALID,156,VALID,1.96948,
2007-03-20, 01:56:00,VALID,918.352,VALID,0,VALID,97.8818,VALID,205.587,VALID,19.6277,VALID,153,VALID,2.11242,
2007-03-20, 01:57:00,VALID,918.365,VALID,0,VALID,98.0433,VALID,207.76,VALID,19.6571,VALID,147,VALID,1.57794,
2007-03-20, 01:58:00,VALID,918.383,VALID,0,VALID,98.2798,VALID,209.883,VALID,19.7093,VALID,147,VALID,1.62367,
2007-03-20, 01:59:00,VALID,918.391,VALID,0,VALID,97.7813,VALID,211.853,VALID,19.7223,VALID,149,VALID,2.18809,
2007-03-20, 02:00:00,VALID,918.394,VALID,0,VALID,97.4405,VALID,213.941,VALID,19.7155,VALID,158,VALID,2.05801,
2007-03-20, 02:01:00,VALID,918.392,VALID,0,VALID,97.4761,VALID,216.183,VALID,19.742,VALID,154,VALID,1.80878,
2007-03-20, 02:02:00,VALID,918.394,VALID,0,VALID,97.6452,VALID,218.34,VALID,19.7902,VALID,151,VALID,1.69258,
2007-03-20, 02:03:00,VALID,918.402,VALID,0,VALID,97.5206,VALID,220.36,VALID,19.8099,VALID,157,VALID,2.01048,
2007-03-20, 02:04:00,VALID,918.391,VALID,0,VALID,97.3223,VALID,222.551,VALID,19.8099,VALID,147,VALID,2.01154,
2007-03-20, 02:05:00,VALID,918.38,VALID,0,VALID,97.2256,VALID,224.521,VALID,19.8456,VALID,149,VALID,1.79762,
2007-03-20, 02:06:00,VALID,918.384,VALID,0,VALID,96.9611,VALID,226.592,VALID,19.8523,VALID,154,VALID,1.88707,
2007-03-20, 02:07:00,VALID,918.383,VALID,0,VALID,97.0946,VALID,228.613,VALID,19.9005,VALID,149,VALID,1.86133,
2007-03-20, 02:08:00,VALID,918.359,VALID,0,VALID,97.3083,VALID,230.481,VALID,19.9162,VALID,153,VALID,1.78487,
2007-03-20, 02:09:00,VALID,918.348,VALID,0,VALID,97.1252,VALID,232.603,VALID,19.9025,VALID,153,VALID,1.82813,
2007-03-20, 02:10:00,VALID,918.345,VALID,0,VALID,97.0285,VALID,234.675,VALID,19.9352,VALID,155,VALID,2.29219,
2007-03-20, 02:11:00,VALID,918.353,VALID,0,VALID,96.4677,VALID,236.747,VALID,19.9357,VALID,145,VALID,2.28961,
2007-03-20, 02:12:00,VALID,918.378,VALID,0,VALID,96.0532,VALID,238.53,VALID,19.9746,VALID,157,VALID,2.30678,
2007-03-20, 02:13:00,VALID,918.396,VALID,0,VALID,95.5636,VALID,240.347,VALID,20.0006,VALID,155,VALID,2.47965,
2007-03-20, 02:14:00,VALID,918.399,VALID,0,VALID,95.7925,VALID,241.892,VALID,20.039,VALID,164,VALID,1.9353,
2007-03-20, 02:15:00,VALID,918.392,VALID,0,VALID,95.8599,VALID,243.59,VALID,20.1049,VALID,156,VALID,2.19475,
2007-03-20, 02:16:00,VALID,918.393,VALID,0,VALID,95.5522,VALID,245.22,VALID,20.1017,VALID,140,VALID,2.18708,
2007-03-20, 02:17:00,VALID,918.415,VALID,0,VALID,95.8383,VALID,246.681,VALID,20.1925,VALID,161,VALID,1.97303,
2007-03-20, 02:18:00,VALID,918.437,VALID,0,VALID,95.6336,VALID,248.328,VALID,20.2152,VALID,162,VALID,1.94858,
2007-03-20, 02:19:00,VALID,918.438,VALID,0,VALID,95.1885,VALID,250.179,VALID,20.212,VALID,165,VALID,2.06904,
2007-03-20, 02:20:00,VALID,918.461,VALID,0,VALID,95.5738,VALID,252.488,VALID,20.2512,VALID,161,VALID,2.10756,
2007-03-20, 02:21:00,VALID,918.474,VALID,0,VALID,94.7104,VALID,255.069,VALID,20.2577,VALID,152,VALID,2.22303,
2007-03-20, 02:22:00,VALID,918.485,VALID,0,VALID,95.3513,VALID,257.107,VALID,20.2834,VALID,150,VALID,1.44122,
2007-03-20, 02:23:00,VALID,918.487,VALID,0,VALID,95.4161,VALID,259.603,VALID,20.3775,VALID,151,VALID,1.64167,
2007-03-20, 02:24:00,VALID,918.489,VALID,0,VALID,95.4403,VALID,262.201,VALID,20.4494,VALID,165,VALID,1.72218,
2007-03-20, 02:25:00,VALID,918.499,VALID,0,VALID,95.1961,VALID,264.969,VALID,20.4751,VALID,159,VALID,1.4811,
2007-03-20, 02:26:00,VALID,918.496,VALID,0,VALID,96.0608,VALID,267.533,VALID,20.5697,VALID,135,VALID,0.82919,
2007-03-20, 02:27:00,VALID,918.508,VALID,0,VALID,94.6951,VALID,269.707,VALID,20.5865,VALID,158,VALID,1.74163,
2007-03-20, 02:28:00,VALID,918.519,VALID,0,VALID,95.3449,VALID,272.322,VALID,20.6639,VALID,164,VALID,1.38045,
2007-03-20, 02:29:00,VALID,918.527,VALID,0,VALID,94.512,VALID,275.497,VALID,20.6768,VALID,160,VALID,1.79792,
2007-03-20, 02:30:00,VALID,918.554,VALID,0,VALID,94.1674,VALID,278.231,VALID,20.6504,VALID,144,VALID,2.15208,
2007-03-20, 02:31:00,VALID,918.56,VALID,0,VALID,94.8045,VALID,280.693,VALID,20.688,VALID,148,VALID,1.63839,
2007-03-20, 02:32:00,VALID,918.576,VALID,0,VALID,94.2157,VALID,283.461,VALID,20.6853,VALID,150,VALID,2.05451,
2007-03-20, 02:33:00,VALID,918.587,VALID,0,VALID,94.4319,VALID,286.212,VALID,20.7437,VALID,147,VALID,1.72135,
2007-03-20, 02:34:00,VALID,918.597,VALID,0,VALID,94.5209,VALID,289.099,VALID,20.7756,VALID,158,VALID,1.75391,
2007-03-20, 02:35:00,VALID,918.615,VALID,0,VALID,94.526,VALID,291.883,VALID,20.8004,VALID,158,VALID,1.97441,
2007-03-20, 02:36:00,VALID,918.603,VALID,0,VALID,94.1331,VALID,295.144,VALID,20.8237,VALID,152,VALID,2.33689,
2007-03-20, 02:37:00,VALID,918.611,VALID,0,VALID,94.5031,VALID,298.506,VALID,20.8237,VALID,153,VALID,1.5903,
2007-03-20, 02:38:00,VALID,918.599,VALID,0,VALID,94.231,VALID,301.953,VALID,20.8754,VALID,159,VALID,2.02214,
2007-03-20, 02:39:00,VALID,918.594,VALID,0,VALID,94.4128,VALID,305.825,VALID,20.8884,VALID,153,VALID,1.60586,
2007-03-20, 02:40:00,VALID,918.596,VALID,0,VALID,94.1293,VALID,309.985,VALID,20.9243,VALID,157,VALID,2.17634,
2007-03-20, 02:41:00,VALID,918.584,VALID,0,VALID,94.8833,VALID,314.485,VALID,20.9495,VALID,153,VALID,1.59184,
2007-03-20, 02:42:00,VALID,918.569,VALID,0,VALID,94.3391,VALID,319.291,VALID,20.9795,VALID,146,VALID,1.41388,
2007-03-20, 02:43:00,VALID,918.57,VALID,0,VALID,94.9965,VALID,324.402,VALID,21.0696,VALID,150,VALID,1.29652,
2007-03-20, 02:44:00,VALID,918.567,VALID,0,VALID,93.791,VALID,329.632,VALID,21.0796,VALID,148,VALID,2.05039,
2007-03-20, 02:45:00,VALID,918.549,VALID,0,VALID,94.6926,VALID,335.405,VALID,21.1992,VALID,139,VALID,1.55907,
2007-03-20, 02:46:00,VALID,918.565,VALID,0,VALID,93.7681,VALID,341.179,VALID,21.2595,VALID,133,VALID,2.04973,
2007-03-20, 02:47:00,VALID,918.553,VALID,0,VALID,93.7872,VALID,346.952,VALID,21.3122,VALID,152,VALID,1.8912,
2007-03-20, 02:48:00,VALID,918.556,VALID,0,VALID,93.4311,VALID,352.997,VALID,21.3931,VALID,139,VALID,1.69819,
2007-03-20, 02:49:00,VALID,918.551,VALID,0,VALID,91.7692,VALID,358.041,VALID,21.3804,VALID,130,VALID,2.3084,
2007-03-20, 02:50:00,VALID,918.547,VALID,0,VALID,91.6395,VALID,364.358,VALID,21.4129,VALID,116,VALID,2.0506,
2007-03-20, 02:51:00,VALID,918.557,VALID,0,VALID,91.7323,VALID,370.81,VALID,21.4746,VALID,142,VALID,1.39203,
2007-03-20, 02:52:00,VALID,918.561,VALID,0,VALID,92.6644,VALID,377.857,VALID,21.6109,VALID,127,VALID,1.53764,
2007-03-20, 02:53:00,VALID,918.558,VALID,0,VALID,92.5385,VALID,383.427,VALID,21.741,VALID,134,VALID,1.17551,
2007-03-20, 02:54:00,VALID,918.543,VALID,0,VALID,91.169,VALID,389.472,VALID,21.757,VALID,123,VALID,1.95879,
2007-03-20, 02:55:00,VALID,918.534,VALID,0,VALID,89.746,VALID,390.882,VALID,21.77,VALID,144,VALID,2.13758,
2007-03-20, 02:56:00,VALID,918.525,VALID,0,VALID,89.2972,VALID,396.672,VALID,21.7827,VALID,127,VALID,2.37367,
2007-03-20, 02:57:00,VALID,918.525,VALID,0,VALID,89.5362,VALID,408.847,VALID,21.8089,VALID,122,VALID,1.81784,
2007-03-20, 02:58:00,VALID,918.522,VALID,0,VALID,89.5769,VALID,417.644,VALID,21.8936,VALID,147,VALID,1.51897,
2007-03-20, 02:59:00,VALID,918.504,VALID,0,VALID,91.0329,VALID,426.898,VALID,22.0365,VALID,156,VALID,1.26744,
2007-03-20, 03:00:00,VALID,918.493,VALID,0,VALID,89.4726,VALID,437.426,VALID,22.0982,VALID,157,VALID,1.77035,
2007-03-20, 03:01:00,VALID,918.488,VALID,0,VALID,88.8165,VALID,450.552,VALID,22.0719,VALID,158,VALID,2.12137,
2007-03-20, 03:02:00,VALID,918.484,VALID,0,VALID,89.3557,VALID,467.211,VALID,22.1333,VALID,147,VALID,1.90044,
2007-03-20, 03:03:00,VALID,918.494,VALID,0,VALID,89.2984,VALID,483.02,VALID,22.231,VALID,132,VALID,1.32999,
2007-03-20, 03:04:00,VALID,918.487,VALID,0,VALID,87.1901,VALID,497.538,VALID,22.2927,VALID,119,VALID,1.99505,
2007-03-20, 03:05:00,VALID,918.491,VALID,0,VALID,85.9859,VALID,509.357,VALID,22.3255,VALID,154,VALID,2.23613,
2007-03-20, 03:06:00,VALID,918.493,VALID,0,VALID,86.4119,VALID,516.947,VALID,22.4846,VALID,137,VALID,1.73209,
2007-03-20, 03:07:00,VALID,918.493,VALID,0,VALID,86.534,VALID,521.227,VALID,22.5947,VALID,133,VALID,1.49628,
2007-03-20, 03:08:00,VALID,918.511,VALID,0,VALID,85.6705,VALID,532.281,VALID,22.7084,VALID,133,VALID,1.52134,
2007-03-20, 03:09:00,VALID,918.511,VALID,0,VALID,85.0551,VALID,543.624,VALID,22.8324,VALID,117,VALID,1.65234,
2007-03-20, 03:10:00,VALID,918.499,VALID,0,VALID,84.8351,VALID,553.983,VALID,22.9301,VALID,138,VALID,1.30543,
2007-03-20, 03:11:00,VALID,918.508,VALID,0,VALID,82.2944,VALID,570.047,VALID,22.9357,VALID,134,VALID,2.35121,
2007-03-20, 03:12:00,VALID,918.515,VALID,0,VALID,82.3402,VALID,586.824,VALID,22.9322,VALID,128,VALID,1.50267,
2007-03-20, 03:13:00,VALID,918.491,VALID,0,VALID,82.0884,VALID,598.863,VALID,23.0007,VALID,146,VALID,2.19822,
2007-03-20, 03:14:00,VALID,918.461,VALID,0,VALID,82.5767,VALID,612.77,VALID,23.086,VALID,150,VALID,2.19643,
2007-03-20, 03:15:00,VALID,918.454,VALID,0,VALID,83.2863,VALID,629.327,VALID,23.1636,VALID,125,VALID,1.69604,
2007-03-20, 03:16:00,VALID,918.43,VALID,0,VALID,83.3499,VALID,650.858,VALID,23.2611,VALID,141,VALID,1.62593,
2007-03-20, 03:17:00,VALID,918.413,VALID,0,VALID,83.0421,VALID,668.824,VALID,23.3458,VALID,149,VALID,1.61464,
2007-03-20, 03:18:00,VALID,918.385,VALID,0,VALID,82.6632,VALID,685.618,VALID,23.4728,VALID,125,VALID,1.90305,
2007-03-20, 03:19:00,VALID,918.368,VALID,0,VALID,80.3565,VALID,703.159,VALID,23.4923,VALID,138,VALID,2.62972,
2007-03-20, 03:20:00,VALID,918.367,VALID,0,VALID,79.3227,VALID,717.576,VALID,23.4436,VALID,142,VALID,2.21403,
2007-03-20, 03:21:00,VALID,918.356,VALID,0,VALID,81.3242,VALID,726.729,VALID,23.4953,VALID,147,VALID,2.62062,
2007-03-20, 03:22:00,VALID,918.341,VALID,0,VALID,79.9559,VALID,730.125,VALID,23.4917,VALID,125,VALID,2.91777,
2007-03-20, 03:23:00,VALID,918.327,VALID,0,VALID,81.3712,VALID,736.662,VALID,23.4622,VALID,140,VALID,2.08315,
2007-03-20, 03:24:00,VALID,918.312,VALID,0,VALID,82.8895,VALID,743.659,VALID,23.6314,VALID,130,VALID,1.80575,
2007-03-20, 03:25:00,VALID,918.301,VALID,0,VALID,81.7248,VALID,742.708,VALID,23.7551,VALID,127,VALID,1.74238,
2007-03-20, 03:26:00,VALID,918.298,VALID,0,VALID,81.136,VALID,745.934,VALID,23.8984,VALID,138,VALID,1.9541,
2007-03-20, 03:27:00,VALID,918.294,VALID,0,VALID,81.3051,VALID,748.736,VALID,24.0053,VALID,117,VALID,1.37991,
2007-03-20, 03:28:00,VALID,918.273,VALID,0,VALID,81.6014,VALID,749.958,VALID,24.1878,VALID,146,VALID,1.62988,
2007-03-20, 03:29:00,VALID,918.253,VALID,0,VALID,80.2357,VALID,723.638,VALID,24.2655,VALID,163,VALID,1.54342,
2007-03-20, 03:30:00,VALID,918.24,VALID,0,VALID,80.0043,VALID,747.479,VALID,24.3721,VALID,148,VALID,1.65625,
2007-03-20, 03:31:00,VALID,918.216,VALID,0,VALID,77.9455,VALID,748.872,VALID,24.3417,VALID,138,VALID,2.5968,
2007-03-20, 03:32:00,VALID,918.194,VALID,0,VALID,76.604,VALID,750.196,VALID,24.2507,VALID,118,VALID,2.74219,
2007-03-20, 03:33:00,VALID,918.18,VALID,0,VALID,78.0511,VALID,752.624,VALID,24.2221,VALID,128,VALID,1.80558,
2007-03-20, 03:34:00,VALID,918.148,VALID,0,VALID,76.6625,VALID,751.249,VALID,24.2123,VALID,132,VALID,2.65371,
2007-03-20, 03:35:00,VALID,918.137,VALID,0,VALID,76.8876,VALID,762.168,VALID,24.1831,VALID,153,VALID,3.2593,
2007-03-20, 03:36:00,VALID,918.122,VALID,0,VALID,75.5346,VALID,776.873,VALID,24.1311,VALID,156,VALID,3.01451,
2007-03-20, 03:37:00,VALID,918.116,VALID,0,VALID,76.3281,VALID,780.235,VALID,24.1376,VALID,135,VALID,1.9636,
2007-03-20, 03:38:00,VALID,918.111,VALID,0,VALID,77.0427,VALID,786.722,VALID,24.2581,VALID,151,VALID,1.94773,
2007-03-20, 03:39:00,VALID,918.107,VALID,0,VALID,77.1025,VALID,790.492,VALID,24.3423,VALID,156,VALID,2.20046,
2007-03-20, 03:40:00,VALID,918.082,VALID,0,VALID,77.0135,VALID,800.68,VALID,24.4657,VALID,133,VALID,2.07546,